Find Starlink 5174

NORAD ID: 54067 Int'l Des: 2022-136 Owner: SPXS Country: US Constellation: starlink operational
LEOCIRCULAR

实时位置

正在加载3D地球...

关于 Starlink 5174

正在加载描述...

即将过境

Passes for default location (London). Set your location on the main map for personalized predictions.

高度历史

Loading altitude history...

两行轨道根数

1 54067U 22136S 26124.63921963 -.00000948 00000-0 -41519-4 0 9997
2 54067 53.2173 92.7268 0001444 78.0826 282.0328 15.08831350195298
Epoch: May 4, 2026 • Age: 16 hours

当前状态

高度 556.6 km
速度 7.58 km/s
星下点 -46.92°S, 69.72°E
发射日期 Oct 20, 2022
运行时间 3.5 years
类型 internet

技术详情

分类 Payload
质量 305.00 kg
干质量 290.00 kg
总质量 305.00 kg
长度 0.20 m
直径 2.80 m
跨度 9.00 m
形状 Box + pan
制造商 SPXS
平台类型 Starlink
阶段状态 In Orbit
所有者/国家 SPXS/US

Most Searched